TimeAKST,TemperatureF,Dew PointF,Humidity,Sea Level PressureIn,VisibilityMPH,Wind Direction,Wind SpeedMPH,Gust SpeedMPH,PrecipitationIn,Events,Conditions,WindDirDegrees,DateUTC
12:53 AM,-32.1,-9999,N/A,30.45,4.0,Calm,Calm,-,0.00,,Partly Cloudy,0,2011-11-16 09:53:00
1:53 AM,-32.1,-9999,N/A,30.46,3.0,Calm,Calm,-,N/A,,Partly Cloudy,0,2011-11-16 10:53:00
3:53 AM,-36.0,-9999,N/A,30.48,5.0,Calm,Calm,-,0.00,Snow,Light Snow,0,2011-11-16 12:53:00
4:53 AM,-36.0,-9999,N/A,30.48,5.0,Calm,Calm,-,0.00,,Partly Cloudy,0,2011-11-16 13:53:00
5:53 AM,-36.9,-9999,N/A,30.50,5.0,Calm,Calm,-,N/A,,Partly Cloudy,0,2011-11-16 14:53:00
6:53 AM,-36.9,-9999,N/A,30.51,4.0,Calm,Calm,-,N/A,,Partly Cloudy,0,2011-11-16 15:53:00
7:53 AM,-36.9,-9999,N/A,30.52,5.0,Calm,Calm,-,N/A,,Partly Cloudy,0,2011-11-16 16:53:00
8:24 AM,-36.4,-9999,N/A,30.45,2.5,Calm,Calm,-,N/A,,Mostly Cloudy,0,2011-11-16 17:24:00
8:36 AM,-36.4,-9999,N/A,30.46,5.0,Calm,Calm,-,N/A,,Partly Cloudy,0,2011-11-16 17:36:00
8:53 AM,-38.0,-9999,N/A,30.54,5.0,Calm,Calm,-,N/A,,Partly Cloudy,0,2011-11-16 17:53:00
9:53 AM,-38.0,-9999,N/A,30.56,5.0,Calm,Calm,-,N/A,,Partly Cloudy,0,2011-11-16 18:53:00
10:53 AM,-35.0,-9999,N/A,30.55,5.0,Calm,Calm,-,N/A,,Scattered Clouds,0,2011-11-16 19:53:00
11:53 AM,-32.1,-9999,N/A,30.56,7.0,Calm,Calm,-,N/A,Fog,Scattered Clouds,0,2011-11-16 20:53:00
12:53 PM,-29.9,-9999,N/A,30.56,2.0,Calm,Calm,-,N/A,,Scattered Clouds,0,2011-11-16 21:53:00
1:16 PM,-29.2,-9999,N/A,30.49,5.0,Calm,Calm,-,N/A,,Scattered Clouds,0,2011-11-16 22:16:00
1:53 PM,-29.0,-35.0,73,30.57,7.0,Calm,Calm,-,N/A,Fog,Scattered Clouds,0,2011-11-16 22:53:00
2:53 PM,-29.2,-9999,N/A,30.50,7.0,Calm,Calm,-,N/A,Fog,Scattered Clouds,0,2011-11-16 23:53:00
3:53 PM,-32.1,-9999,N/A,30.59,7.0,Calm,Calm,-,N/A,Fog,Scattered Clouds,0,2011-11-17 00:53:00
4:53 PM,-34.1,-9999,N/A,30.60,7.0,Calm,Calm,-,N/A,,Scattered Clouds,0,2011-11-17 01:53:00
5:53 PM,-35.0,-9999,N/A,30.62,5.0,Calm,Calm,-,N/A,,Partly Cloudy,0,2011-11-17 02:53:00
6:53 PM,-35.0,-9999,N/A,30.63,3.0,Calm,Calm,-,N/A,,Partly Cloudy,0,2011-11-17 03:53:00
7:53 PM,-36.9,-9999,N/A,30.64,3.0,Calm,Calm,-,N/A,,Partly Cloudy,0,2011-11-17 04:53:00
8:53 PM,-36.9,-9999,N/A,30.65,3.0,Calm,Calm,-,N/A,,Partly Cloudy,0,2011-11-17 05:53:00
9:53 PM,-36.9,-9999,N/A,30.66,3.0,Calm,Calm,-,N/A,,Partly Cloudy,0,2011-11-17 06:53:00
10:53 PM,-38.9,-9999,N/A,30.66,3.0,Calm,Calm,-,N/A,,Partly Cloudy,0,2011-11-17 07:53:00
11:53 PM,-38.9,-9999,N/A,30.67,3.0,Calm,Calm,-,N/A,,Partly Cloudy,0,2011-11-17 08:53:00